"Sample Date","Sample Time","Sample Value","Units","Flow Rate","Sample Interval","Number Channels","Micron Size 0","Counts/Channel 0","Micron Size 1","Counts/Channel 1","Micron Size 2","Counts/Channel 2","Micron Size 3","Counts/Channel 3","Micron Size 4","Counts/Channel 4","Micron Size 5","Counts/Channel 5","Micron Size 6","Counts/Channel 6","Micron Size 7","Counts/Channel 7","Micron Size 8","Counts/Channel 8","Micron Size 9","Counts/Channel 9","Micron Size 10","Counts/Channel 10","Micron Size 11","Counts/Channel 11","Micron Size 12","Counts/Channel 12","Micron Size 13","Counts/Channel 13","Micron Size 14","Counts/Channel 14","Micron Size 15","Counts/Channel 15","Micron Size 16","Counts/Channel 16","Micron Size 17","Counts/Channel 17","Micron Size 18","Counts/Channel 18","Micron Size 19","Counts/Channel 19","Micron Size 20","Counts/Channel 20","Micron Size 21","Counts/Channel 21","Micron Size 22","Counts/Channel 22","Micron Size 23","Counts/Channel 23","Micron Size 24","Counts/Channel 24","Micron Size 25","Counts/Channel 25","Micron Size 26","Counts/Channel 26","Micron Size 27","Counts/Channel 27","Micron Size 28","Counts/Channel 28","Micron Size 29","Counts/Channel 29","Micron Size 30","Counts/Channel 30","Micron Size 31","Counts/Channel 31"
"03/10/08","12:00:05",53242.000,"cc",28350.250,6.00,6,0.100,45807.000,0.200,4335.000,0.300,1300.000,0.500,1325.000,1.000,475.000,5.000,0
"03/10/08","12:00:11",33304.000,"cc",28284.227,6.00,6,0.100,27833.000,0.200,2563.000,0.300,1170.000,0.500,1241.000,1.000,497.000,5.000,0
"03/10/08","12:00:17",30341.000,"cc",28337.223,6.00,6,0.100,25230.000,0.200,2271.000,0.300,1108.000,0.500,1285.000,1.000,447.000,5.000,0
"03/10/08","12:00:23",48767.000,"cc",28315.438,6.00,6,0.100,41401.000,0.200,4119.000,0.300,1409.000,0.500,1339.000,1.000,499.000,5.000,0
"03/10/08","12:00:29",32079.000,"cc",28336.100,6.00,6,0.100,26621.000,0.200,2442.000,0.300,1256.000,0.500,1263.000,1.000,497.000,5.000,0
"03/10/08","12:00:35",38775.000,"cc",28341.988,6.00,6,0.100,32056.000,0.200,3233.000,0.300,1482.000,0.500,1450.000,1.000,554.000,5.000,0
"03/10/08","12:00:41",57438.000,"cc",28261.051,6.00,6,0.100,49422.000,0.200,4701.000,0.300,1386.000,0.500,1407.000,1.000,522.000,5.000,0
"03/10/08","12:00:47",54724.000,"cc",28288.785,6.00,6,0.100,46981.000,0.200,4464.000,0.300,1473.000,0.500,1317.000,1.000,489.000,5.000,0
"03/10/08","12:00:53",52441.000,"cc",28378.799,6.00,6,0.100,45215.000,0.200,4158.000,0.300,1262.000,0.500,1338.000,1.000,468.000,5.000,0
"03/10/08","12:00:59",68405.000,"cc",28295.244,6.00,6,0.100,59252.000,0.200,5733.000,0.300,1521.000,0.500,1367.000,1.000,532.000,5.000,0
"03/10/08","12:01:05",67217.000,"cc",28350.018,6.00,6,0.100,58161.000,0.200,5561.000,0.300,1505.000,0.500,1478.000,1.000,512.000,5.000,0
"03/10/08","12:01:11",59332.000,"cc",28287.135,6.00,6,0.100,50956.000,0.200,4771.000,0.300,1569.000,0.500,1456.000,1.000,580.000,5.000,0
"03/10/08","12:01:17",46501.000,"cc",28318.080,6.00,6,0.100,39399.000,0.200,3804.000,0.300,1427.000,0.500,1372.000,1.000,499.000,5.000,0
"03/10/08","12:01:23",32560.000,"cc",28311.578,6.00,6,0.100,26560.000,0.200,2745.000,0.300,1337.000,0.500,1394.000,1.000,524.000,5.000,0
"03/10/08","12:01:29",28533.000,"cc",28287.115,6.00,6,0.100,23357.000,0.200,2141.000,0.300,1233.000,0.500,1311.000,1.000,491.000,5.000,0
"03/10/08","12:01:35",31006.000,"cc",28318.629,6.00,6,0.100,25417.000,0.200,2432.000,0.300,1262.000,0.500,1384.000,1.000,511.000,5.000,0
"03/10/08","12:01:41",25788.000,"cc",28331.395,6.00,6,0.100,21066.000,0.200,1836.000,0.300,1137.000,0.500,1267.000,1.000,482.000,5.000,0
"03/10/08","12:01:47",26066.000,"cc",28324.037,6.00,6,0.100,21245.000,0.200,1971.000,0.300,1130.000,0.500,1274.000,1.000,446.000,5.000,0
"03/10/08","12:01:53",25432.000,"cc",28277.559,6.00,6,0.100,20694.000,0.200,1884.000,0.300,1158.000,0.500,1230.000,1.000,466.000,5.000,0
"03/10/08","12:01:59",25349.000,"cc",28307.840,6.00,6,0.100,20470.000,0.200,1925.000,0.300,1208.000,0.500,1253.000,1.000,493.000,5.000,0
"03/10/08","12:02:05",26149.000,"cc",28345.879,6.00,6,0.100,20819.000,0.200,2079.000,0.300,1334.000,0.500,1377.000,1.000,540.000,5.000,0
"03/10/08","12:02:11",25715.000,"cc",28317.350,6.00,6,0.100,20721.000,0.200,1907.000,0.300,1264.000,0.500,1291.000,1.000,532.000,5.000,0
"03/10/08","12:02:17",24970.000,"cc",28362.830,6.00,6,0.100,20624.000,0.200,1738.000,0.300,1044.000,0.500,1119.000,1.000,445.000,5.000,0
"03/10/08","12:02:23",25005.000,"cc",28311.043,6.00,6,0.100,20613.000,0.200,1824.000,0.300,1022.000,0.500,1093.000,1.000,453.000,5.000,0
"03/10/08","12:02:29",24935.000,"cc",28261.635,6.00,6,0.100,20592.000,0.200,1763.000,0.300,997.000,0.500,1155.000,1.000,428.000,5.000,0
"03/10/08","12:02:35",25709.000,"cc",28366.373,6.00,6,0.100,21107.000,0.200,1822.000,0.300,1113.000,0.500,1173.000,1.000,494.000,5.000,0
"03/10/08","12:02:41",25909.000,"cc",28336.531,6.00,6,0.100,21201.000,0.200,1886.000,0.300,1152.000,0.500,1201.000,1.000,469.000,5.000,0
"03/10/08","12:02:47",25755.000,"cc",28306.225,6.00,6,0.100,21022.000,0.200,1844.000,0.300,1184.000,0.500,1227.000,1.000,478.000,5.000,0
"03/10/08","12:02:53",25774.000,"cc",28329.402,6.00,6,0.100,20905.000,0.200,1943.000,0.300,1156.000,0.500,1321.000,1.000,449.000,5.000,0
"03/10/08","12:02:59",26532.000,"cc",28329.076,6.00,6,0.100,21349.000,0.200,2093.000,0.300,1215.000,0.500,1360.000,1.000,515.000,5.000,0
"03/10/08","12:03:05",28214.000,"cc",28293.623,6.00,6,0.100,22446.000,0.200,2382.000,0.300,1408.000,0.500,1441.000,1.000,537.000,5.000,0
"03/10/08","12:03:11",25795.000,"cc",28307.451,6.00,6,0.100,20858.000,0.200,1950.000,0.300,1177.000,0.500,1300.000,1.000,510.000,5.000,0
"03/10/08","12:03:17",26855.000,"cc",28343.522,6.00,6,0.100,21645.000,0.200,2145.000,0.300,1254.000,0.500,1333.000,1.000,478.000,5.000,0
"03/10/08","12:03:23",27660.000,"cc",28353.354,6.00,6,0.100,22148.000,0.200,2246.000,0.300,1317.000,0.500,1400.000,1.000,549.000,5.000,0
"03/10/08","12:03:29",26386.000,"cc",28318.066,6.00,6,0.100,21429.000,0.200,1993.000,0.300,1213.000,0.500,1251.000,1.000,500.000,5.000,0
"03/10/08","12:03:35",29938.000,"cc",28370.424,6.00,6,0.100,24233.000,0.200,2478.000,0.300,1369.000,0.500,1352.000,1.000,506.000,5.000,0
"03/10/08","12:03:41",35453.000,"cc",28285.102,6.00,6,0.100,29367.000,0.200,2849.000,0.300,1338.000,0.500,1353.000,1.000,546.000,5.000,0
"03/10/08","12:03:47",47975.000,"cc",28265.619,6.00,6,0.100,40356.000,0.200,4068.000,0.300,1524.000,0.500,1494.000,1.000,533.000,5.000,0
"03/10/08","12:03:53",32346.000,"cc",28226.508,6.00,6,0.100,26352.000,0.200,2541.000,0.300,1399.000,0.500,1485.000,1.000,569.000,5.000,0
"03/10/08","12:03:59",40134.000,"cc",28269.664,6.00,6,0.100,33575.000,0.200,3228.000,0.300,1331.000,0.500,1457.000,1.000,543.000,5.000,0
"03/10/08","12:04:05",38837.000,"cc",28393.119,6.00,6,0.100,32764.000,0.200,2964.000,0.300,1262.000,0.500,1346.000,1.000,501.000,5.000,0
"03/10/08","12:04:11",37249.000,"cc",28218.268,6.00,6,0.100,31020.000,0.200,3007.000,0.300,1327.000,0.500,1391.000,1.000,504.000,5.000,0
"03/10/08","12:04:17",29950.000,"cc",28370.887,6.00,6,0.100,24596.000,0.200,2338.000,0.300,1243.000,0.500,1285.000,1.000,488.000,5.000,0
"03/10/08","12:04:23",29292.000,"cc",28358.543,6.00,6,0.100,23972.000,0.200,2206.000,0.300,1247.000,0.500,1359.000,1.000,508.000,5.000,0
"03/10/08","12:04:29",31925.000,"cc",28265.619,6.00,6,0.100,26450.000,0.200,2394.000,0.300,1223.000,0.500,1346.000,1.000,512.000,5.000,0
"03/10/08","12:04:35",39042.000,"cc",28301.016,6.00,6,0.100,33121.000,0.200,2941.000,0.300,1184.000,0.500,1298.000,1.000,498.000,5.000,0
"03/10/08","12:04:41",39543.000,"cc",28398.691,6.00,6,0.100,33432.000,0.200,2980.000,0.300,1268.000,0.500,1330.000,1.000,533.000,5.000,0
"03/10/08","12:04:47",36091.000,"cc",28273.607,6.00,6,0.100,29995.000,0.200,2729.000,0.300,1396.000,0.500,1403.000,1.000,568.000,5.000,0
"03/10/08","12:04:53",37864.000,"cc",28260.883,6.00,6,0.100,31507.000,0.200,2890.000,0.300,1438.000,0.500,1470.000,1.000,559.000,5.000,0
"03/10/08","12:04:59",31940.000,"cc",28280.592,6.00,6,0.100,26236.000,0.200,2402.000,0.300,1346.000,0.500,1414.000,1.000,542.000,5.000,0
"03/10/08","12:05:05",35898.000,"cc",28365.857,6.00,6,0.100,29807.000,0.200,2879.000,0.300,1339.000,0.500,1351.000,1.000,522.000,5.000,0
"03/10/08","12:05:11",35552.000,"cc",28326.990,6.00,6,0.100,29807.000,0.200,2647.000,0.300,1277.000,0.500,1312.000,1.000,509.000,5.000,0
"03/10/08","12:05:17",32406.000,"cc",28267.725,6.00,6,0.100,26450.000,0.200,2651.000,0.300,1361.000,0.500,1416.000,1.000,528.000,5.000,0
"03/10/08","12:05:23",33163.000,"cc",28335.801,6.00,6,0.100,26125.000,0.200,2958.000,0.300,1670.000,0.500,1763.000,1.000,647.000,5.000,0
"03/10/08","12:05:29",31068.000,"cc",28346.053,6.00,6,0.100,25373.000,0.200,2444.000,0.300,1335.000,0.500,1407.000,1.000,509.000,5.000,0
"03/10/08","12:05:35",41035.000,"cc",28315.086,6.00,6,0.100,34576.000,0.200,3284.000,0.300,1386.000,0.500,1320.000,1.000,468.000,5.000,1.000
"03/10/08","12:05:41",42087.000,"cc",28319.000,6.00,6,0.100,35631.000,0.200,3277.000,0.300,1309.000,0.500,1372.000,1.000,498.000,5.000,0
"03/10/08","12:05:47",43297.000,"cc",28273.514,6.00,6,0.100,36864.000,0.200,3489.000,0.300,1282.000,0.500,1183.000,1.000,479.000,5.000,0
"03/10/08","12:05:53",51330.000,"cc",28337.135,6.00,6,0.100,44140.000,0.200,4037.000,0.300,1334.000,0.500,1339.000,1.000,480.000,5.000,0
"03/10/08","12:05:59",48203.000,"cc",28365.338,6.00,6,0.100,41176.000,0.200,3864.000,0.300,1345.000,0.500,1291.000,1.000,527.000,5.000,0
"03/10/08","12:06:05",57706.000,"cc",28198.301,6.00,6,0.100,49496.000,0.200,4664.000,0.300,1591.000,0.500,1466.000,1.000,489.000,5.000,0
"03/10/08","12:06:11",55242.000,"cc",28378.061,6.00,6,0.100,47549.000,0.200,4365.000,0.300,1355.000,0.500,1410.000,1.000,563.000,5.000,0
"03/10/08","12:06:17",57607.000,"cc",28307.436,6.00,6,0.100,49140.000,0.200,4667.000,0.300,1604.000,0.500,1575.000,1.000,621.000,5.000,0
"03/10/08","12:06:23",84688.000,"cc",28251.531,6.00,6,0.100,74148.000,0.200,6758.000,0.300,1655.000,0.500,1540.000,1.000,587.000,5.000,0
"03/10/08","12:06:29",139237.000,"cc",28339.420,6.00,6,0.100,123381.000,0.200,11741.000,0.300,1948.000,0.500,1562.000,1.000,605.000,5.000,0
"03/10/08","12:06:35",154042.000,"cc",28311.898,6.00,6,0.100,136712.000,0.200,13363.000,0.300,1969.000,0.500,1461.000,1.000,537.000,5.000,0
"03/10/08","12:06:41",162262.000,"cc",28389.479,6.00,6,0.100,143983.000,0.200,14332.000,0.300,1920.000,0.500,1443.000,1.000,584.000,5.000,0
"03/10/08","12:06:47",310244.000,"cc",28278.930,6.00,6,0.100,272125.000,0.200,33337.000,0.300,2689.000,0.500,1498.000,1.000,595.000,5.000,0
"03/10/08","12:06:53",367882.000,"cc",28305.557,6.00,6,0.100,321044.000,0.200,41907.000,0.300,3005.000,0.500,1388.000,1.000,538.000,5.000,0
"03/10/08","12:06:59",303360.000,"cc",28334.447,6.00,6,0.100,255365.000,0.200,42787.000,0.300,3219.000,0.500,1445.000,1.000,544.000,5.000,0
"03/10/08","12:07:05",327665.000,"cc",28424.990,6.00,6,0.100,275262.000,0.200,46784.000,0.300,3612.000,0.500,1472.000,1.000,535.000,5.000,0
"03/10/08","12:07:11",309869.000,"cc",28226.879,6.00,6,0.100,271189.000,0.200,33827.000,0.300,2880.000,0.500,1455.000,1.000,518.000,5.000,0
"03/10/08","12:07:17",296781.000,"cc",28339.900,6.00,6,0.100,248863.000,0.200,42387.000,0.300,3415.000,0.500,1531.000,1.000,584.000,5.000,1.000
"03/10/08","12:07:23",320073.000,"cc",28260.039,6.00,6,0.100,265827.000,0.200,48449.000,0.300,3715.000,0.500,1515.000,1.000,567.000,5.000,0
"03/10/08","12:07:29",175132.000,"cc",28331.666,6.00,6,0.100,87620.000,0.200,79978.000,0.300,5468.000,0.500,1556.000,1.000,510.000,5.000,0
"03/10/08","12:07:35",240582.000,"cc",28388.711,6.00,6,0.100,151245.000,0.200,81660.000,0.300,5656.000,0.500,1493.000,1.000,528.000,5.000,0
"03/10/08","12:07:41",322536.000,"cc",28301.094,6.00,6,0.100,254925.000,0.200,61481.000,0.300,4152.000,0.500,1466.000,1.000,512.000,5.000,0
"03/10/08","12:07:47",172796.000,"cc",28287.182,6.00,6,0.100,89605.000,0.200,76254.000,0.300,4923.000,0.500,1530.000,1.000,484.000,5.000,0
"03/10/08","12:07:53",201517.000,"cc",28314.063,6.00,6,0.100,101405.000,0.200,92179.000,0.300,5696.000,0.500,1675.000,1.000,562.000,5.000,0
"03/10/08","12:07:59",301399.000,"cc",28361.969,6.00,6,0.100,238214.000,0.200,57352.000,0.300,3800.000,0.500,1496.000,1.000,537.000,5.000,0
"03/10/08","12:08:05",180679.000,"cc",28324.244,6.00,6,0.100,93166.000,0.200,80466.000,0.300,4951.000,0.500,1551.000,1.000,545.000,5.000,0
"03/10/08","12:08:11",278463.000,"cc",28278.744,6.00,6,0.100,204909.000,0.200,67346.000,0.300,4188.000,0.500,1494.000,1.000,526.000,5.000,0
"03/10/08","12:08:17",330224.000,"cc",28279.092,6.00,6,0.100,260587.000,0.200,63580.000,0.300,3984.000,0.500,1543.000,1.000,530.000,5.000,0
"03/10/08","12:08:23",133303.000,"cc",28351.332,6.00,6,0.100,65007.000,0.200,62322.000,0.300,3919.000,0.500,1483.000,1.000,572.000,5.000,0
"03/10/08","12:08:29",173508.000,"cc",28308.672,6.00,6,0.100,92618.000,0.200,74396.000,0.300,4475.000,0.500,1447.000,1.000,572.000,5.000,0
"03/10/08","12:08:35",175583.000,"cc",28320.201,6.00,6,0.100,92743.000,0.200,75813.000,0.300,4799.000,0.500,1627.000,1.000,601.000,5.000,0
"03/10/08","12:08:41",208125.000,"cc",28311.176,6.00,6,0.100,136062.000,0.200,65469.000,0.300,4258.000,0.500,1670.000,1.000,666.000,5.000,0
"03/10/08","12:08:47",359995.000,"cc",28346.783,6.00,6,0.100,298942.000,0.200,54972.000,0.300,3740.000,0.500,1704.000,1.000,637.000,5.000,0
"03/10/08","12:08:53",194405.000,"cc",28294.852,6.00,6,0.100,172193.000,0.200,17838.000,0.300,2168.000,0.500,1591.000,1.000,615.000,5.000,0
"03/10/08","12:08:59",225061.000,"cc",28274.395,6.00,6,0.100,198260.000,0.200,22401.000,0.300,2221.000,0.500,1535.000,1.000,644.000,5.000,0
"03/10/08","12:09:05",284186.000,"cc",28415.438,6.00,6,0.100,238930.000,0.200,40289.000,0.300,2972.000,0.500,1450.000,1.000,545.000,5.000,0
"03/10/08","12:09:11",219499.000,"cc",28211.871,6.00,6,0.100,136227.000,0.200,76367.000,0.300,4875.000,0.500,1525.000,1.000,505.000,5.000,0
"03/10/08","12:09:17",271523.000,"cc",28309.473,6.00,6,0.100,147645.000,0.200,113960.000,0.300,7824.000,0.500,1573.000,1.000,521.000,5.000,0
"03/10/08","12:09:23",299093.000,"cc",28299.111,6.00,6,0.100,202653.000,0.200,88267.000,0.300,6012.000,0.500,1600.000,1.000,561.000,5.000,0
"03/10/08","12:09:29",181180.000,"cc",28260.514,6.00,6,0.100,113030.000,0.200,61900.000,0.300,4242.000,0.500,1479.000,1.000,529.000,5.000,0
"03/10/08","12:09:35",217653.000,"cc",28316.430,6.00,6,0.100,181577.000,0.200,31602.000,0.300,2593.000,0.500,1357.000,1.000,524.000,5.000,0
"03/10/08","12:09:41",197546.000,"cc",28348.963,6.00,6,0.100,97480.000,0.200,92188.000,0.300,5950.000,0.500,1405.000,1.000,523.000,5.000,0
"03/10/08","12:09:47",190146.000,"cc",28350.777,6.00,6,0.100,93089.000,0.200,89288.000,0.300,5741.000,0.500,1536.000,1.000,492.000,5.000,0
"03/10/08","12:09:53",167472.000,"cc",28352.065,6.00,6,0.100,82989.000,0.200,77512.000,0.300,4909.000,0.500,1523.000,1.000,539.000,5.000,0
"03/10/08","12:09:59",298084.000,"cc",28362.488,6.00,6,0.100,205796.000,0.200,84687.000,0.300,5607.000,0.500,1477.000,1.000,516.000,5.000,1.000
"03/10/08","12:10:05",150875.000,"cc",28350.512,6.00,6,0.100,75526.000,0.200,68809.000,0.300,4487.000,0.500,1517.000,1.000,536.000,5.000,0
"03/10/08","12:10:11",367533.000,"cc",28262.584,6.00,6,0.100,318894.000,0.200,43497.000,0.300,3236.000,0.500,1386.000,1.000,520.000,5.000,0
"03/10/08","12:10:17",323562.000,"cc",28291.690,6.00,6,0.100,255363.000,0.200,61965.000,0.300,4339.000,0.500,1375.000,1.000,520.000,5.000,0
"03/10/08","12:10:23",261845.000,"cc",28270.545,6.00,6,0.100,189909.000,0.200,65425.000,0.300,4430.000,0.500,1511.000,1.000,570.000,5.000,0
"03/10/08","12:10:29",147932.000,"cc",28296.815,6.00,6,0.100,70387.000,0.200,70753.000,0.300,4865.000,0.500,1394.000,1.000,533.000,5.000,0
"03/10/08","12:10:35",299649.000,"cc",28357.084,6.00,6,0.100,212525.000,0.200,79780.000,0.300,5334.000,0.500,1506.000,1.000,504.000,5.000,0
"03/10/08","12:10:41",204728.000,"cc",28283.018,6.00,6,0.100,92761.000,0.200,103011.000,0.300,6896.000,0.500,1535.000,1.000,525.000,5.000,0
"03/10/08","12:10:47",448712.000,"cc",28354.594,6.00,6,0.100,298878.000,0.200,137162.000,0.300,10445.000,0.500,1680.000,1.000,547.000,5.000,0
"03/10/08","12:10:53",329243.000,"cc",28283.334,6.00,6,0.100,199293.000,0.200,119121.000,0.300,8592.000,0.500,1658.000,1.000,579.000,5.000,0
"03/10/08","12:10:59",289318.000,"cc",28285.398,6.00,6,0.100,190676.000,0.200,90332.000,0.300,6161.000,0.500,1639.000,1.000,510.000,5.000,0
"03/10/08","12:11:05",322810.000,"cc",28297.354,6.00,6,0.100,283498.000,0.200,34416.000,0.300,2755.000,0.500,1546.000,1.000,595.000,5.000,0
"03/10/08","12:11:11",341632.000,"cc",28331.744,6.00,6,0.100,299171.000,0.200,37295.000,0.300,2883.000,0.500,1637.000,1.000,646.000,5.000,0
"03/10/08","12:11:17",353114.000,"cc",28316.734,6.00,6,0.100,308155.000,0.200,39277.000,0.300,3103.000,0.500,1834.000,1.000,745.000,5.000,0
"03/10/08","12:11:23",323091.000,"cc",28319.984,6.00,6,0.100,283924.000,0.200,33566.000,0.300,2979.000,0.500,1846.000,1.000,776.000,5.000,0
"03/10/08","12:11:29",278054.000,"cc",28398.494,6.00,6,0.100,244873.000,0.200,27103.000,0.300,2987.000,0.500,2132.000,1.000,959.000,5.000,0
"03/10/08","12:11:35",231033.000,"cc",28304.703,6.00,6,0.100,203463.000,0.200,21240.000,0.300,2954.000,0.500,2377.000,1.000,999.000,5.000,0
"03/10/08","12:11:41",317493.000,"cc",28265.902,6.00,6,0.100,278881.000,0.200,32677.000,0.300,3047.000,0.500,2032.000,1.000,856.000,5.000,0
"03/10/08","12:11:47",288280.000,"cc",28307.738,6.00,6,0.100,254343.000,0.200,28697.000,0.300,2646.000,0.500,1814.000,1.000,780.000,5.000,0
"03/10/08","12:11:53",338657.000,"cc",28340.332,6.00,6,0.100,296905.000,0.200,36158.000,0.300,3085.000,0.500,1807.000,1.000,702.000,5.000,0
"03/10/08","12:11:59",250596.000,"cc",28282.762,6.00,6,0.100,211904.000,0.200,32930.000,0.300,3088.000,0.500,1875.000,1.000,799.000,5.000,0
"03/10/08","12:12:05",232998.000,"cc",28325.971,6.00,6,0.100,205855.000,0.200,22371.000,0.300,2417.000,0.500,1733.000,1.000,622.000,5.000,0
"03/10/08","12:12:11",231628.000,"cc",28364.490,6.00,6,0.100,169804.000,0.200,55246.000,0.300,4155.000,0.500,1740.000,1.000,683.000,5.000,0
"03/10/08","12:12:17",287973.000,"cc",28387.633,6.00,6,0.100,252882.000,0.200,30034.000,0.300,2722.000,0.500,1675.000,1.000,660.000,5.000,0
"03/10/08","12:12:23",318345.000,"cc",28264.658,6.00,6,0.100,278591.000,0.200,34684.000,0.300,2877.000,0.500,1602.000,1.000,591.000,5.000,0
"03/10/08","12:12:29",215481.000,"cc",28292.250,6.00,6,0.100,191006.000,0.200,19633.000,0.300,2332.000,0.500,1813.000,1.000,697.000,5.000,0
"03/10/08","12:12:35",211824.000,"cc",28268.043,6.00,6,0.100,187478.000,0.200,19664.000,0.300,2362.000,0.500,1632.000,1.000,688.000,5.000,0
"03/10/08","12:12:41",237701.000,"cc",28320.619,6.00,6,0.100,170887.000,0.200,60172.000,0.300,4202.000,0.500,1783.000,1.000,657.000,5.000,0
"03/10/08","12:12:47",388729.000,"cc",28307.264,6.00,6,0.100,320267.000,0.200,61759.000,0.300,4373.000,0.500,1657.000,1.000,673.000,5.000,0
"03/10/08","12:12:53",342084.000,"cc",28342.684,6.00,6,0.100,230592.000,0.200,96327.000,0.300,12486.000,0.500,1994.000,1.000,685.000,5.000,0
"03/10/08","12:12:59",297641.000,"cc",28360.732,6.00,6,0.100,229962.000,0.200,60195.000,0.300,4792.000,0.500,1943.000,1.000,749.000,5.000,0
"03/10/08","12:13:05",267612.000,"cc",28342.527,6.00,6,0.100,207434.000,0.200,53662.000,0.300,4025.000,0.500,1752.000,1.000,739.000,5.000,0
"03/10/08","12:13:11",313264.000,"cc",28300.850,6.00,6,0.100,273909.000,0.200,33582.000,0.300,3157.000,0.500,1829.000,1.000,787.000,5.000,0
"03/10/08","12:13:17",276411.000,"cc",28313.906,6.00,6,0.100,232722.000,0.200,37706.000,0.300,3260.000,0.500,1966.000,1.000,757.000,5.000,0
"03/10/08","12:13:23",239610.000,"cc",28311.082,6.00,6,0.100,180444.000,0.200,51967.000,0.300,4346.000,0.500,2064.000,1.000,789.000,5.000,0
"03/10/08","12:13:29",299888.000,"cc",28281.881,6.00,6,0.100,232499.000,0.200,59880.000,0.300,4719.000,0.500,1978.000,1.000,812.000,5.000,0
"03/10/08","12:13:35",258869.000,"cc",28361.900,6.00,6,0.100,227035.000,0.200,26238.000,0.300,2782.000,0.500,1983.000,1.000,831.000,5.000,0
"03/10/08","12:13:41",304069.000,"cc",28317.000,6.00,6,0.100,266883.000,0.200,31732.000,0.300,2827.000,0.500,1838.000,1.000,789.000,5.000,0
"03/10/08","12:13:47",320307.000,"cc",28361.348,6.00,6,0.100,281342.000,0.200,33499.000,0.300,2941.000,0.500,1768.000,1.000,757.000,5.000,0
"03/10/08","12:13:53",357235.000,"cc",28322.861,6.00,6,0.100,311500.000,0.200,39937.000,0.300,3306.000,0.500,1753.000,1.000,739.000,5.000,0
"03/10/08","12:13:59",311776.000,"cc",28236.176,6.00,6,0.100,273032.000,0.200,33058.000,0.300,3051.000,0.500,1864.000,1.000,771.000,5.000,0
"03/10/08","12:14:05",278567.000,"cc",28335.922,6.00,6,0.100,245037.000,0.200,27966.000,0.300,2918.000,0.500,1865.000,1.000,781.000,5.000,0
"03/10/08","12:14:11",208707.000,"cc",28218.402,6.00,6,0.100,183568.000,0.200,19839.000,0.300,2521.000,0.500,1958.000,1.000,821.000,5.000,0
"03/10/08","12:14:17",261502.000,"cc",28364.693,6.00,6,0.100,229759.000,0.200,26266.000,0.300,2728.000,0.500,1913.000,1.000,836.000,5.000,0
"03/10/08","12:14:23",298133.000,"cc",28325.072,6.00,6,0.100,260390.000,0.200,32082.000,0.300,3000.000,0.500,1862.000,1.000,799.000,5.000,0
"03/10/08","12:14:29",366044.000,"cc",28314.100,6.00,6,0.100,319287.000,0.200,41146.000,0.300,3058.000,0.500,1834.000,1.000,719.000,5.000,0
"03/10/08","12:14:35",328632.000,"cc",28342.830,6.00,6,0.100,289041.000,0.200,34509.000,0.300,2685.000,0.500,1672.000,1.000,725.000,5.000,0
"03/10/08","12:14:41",258687.000,"cc",28323.873,6.00,6,0.100,229056.000,0.200,24918.000,0.300,2313.000,0.500,1659.000,1.000,741.000,5.000,0
"03/10/08","12:14:47",321133.000,"cc",28314.195,6.00,6,0.100,283035.000,0.200,33179.000,0.300,2647.000,0.500,1594.000,1.000,678.000,5.000,0
"03/10/08","12:14:53",373085.000,"cc",28307.166,6.00,6,0.100,324913.000,0.200,42229.000,0.300,3343.000,0.500,1797.000,1.000,802.000,5.000,1.000
"03/10/08","12:14:59",261849.000,"cc",28302.174,6.00,6,0.100,190243.000,0.200,64850.000,0.300,4340.000,0.500,1727.000,1.000,689.000,5.000,0
"03/10/08","12:15:05",213006.000,"cc",28356.570,6.00,6,0.100,101201.000,0.200,102686.000,0.300,6628.000,0.500,1815.000,1.000,676.000,5.000,0
"03/10/08","12:15:11",294825.000,"cc",28303.395,6.00,6,0.100,258999.000,0.200,30368.000,0.300,2848.000,0.500,1837.000,1.000,773.000,5.000,0
"03/10/08","12:15:17",305019.000,"cc",28354.613,6.00,6,0.100,256319.000,0.200,42812.000,0.300,3335.000,0.500,1749.000,1.000,803.000,5.000,1.000
"03/10/08","12:15:23",349188.000,"cc",28298.549,6.00,6,0.100,305014.000,0.200,38522.000,0.300,3220.000,0.500,1758.000,1.000,674.000,5.000,0
"03/10/08","12:15:29",294841.000,"cc",28258.193,6.00,6,0.100,234293.000,0.200,54425.000,0.300,3797.000,0.500,1679.000,1.000,647.000,5.000,0
"03/10/08","12:15:35",288359.000,"cc",28285.918,6.00,6,0.100,251382.000,0.200,30924.000,0.300,3017.000,0.500,2121.000,1.000,915.000,5.000,0
"03/10/08","12:15:41",338456.000,"cc",28409.418,6.00,6,0.100,295574.000,0.200,36782.000,0.300,3204.000,0.500,2065.000,1.000,831.000,5.000,0
"03/10/08","12:15:47",287490.000,"cc",28307.670,6.00,6,0.100,251538.000,0.200,29833.000,0.300,3089.000,0.500,2102.000,1.000,928.000,5.000,0
"03/10/08","12:15:53",290054.000,"cc",28319.451,6.00,6,0.100,254439.000,0.200,29790.000,0.300,2951.000,0.500,1990.000,1.000,884.000,5.000,0
"03/10/08","12:15:59",328175.000,"cc",28331.240,6.00,6,0.100,287382.000,0.200,35418.000,0.300,2912.000,0.500,1732.000,1.000,731.000,5.000,0
"03/10/08","12:16:05",344876.000,"cc",28309.242,6.00,6,0.100,261189.000,0.200,74246.000,0.300,6770.000,0.500,1903.000,1.000,768.000,5.000,0
"03/10/08","12:16:11",375525.000,"cc",28309.373,6.00,6,0.100,308758.000,0.200,59839.000,0.300,4367.000,0.500,1850.000,1.000,711.000,5.000,0